Regional Weather Roundup
Issued by NWS

Home | Current Version | Previous Version | Text Only | Print | Product List | Glossary On
Versions: 1 2 3 4 5 6 7 8 9 10 11 12 13 14 15 16 17 18 19 20 21 22 23 24 25 26 27 28 29 30 31 32 33 34 35 36 37 38 39 40 41 42 43 44 45 46 47 48 49 50
000
ASUS43 KLSX 202010
RWRMO

WEATHER SUMMARY FOR MISSOURI
NATIONAL WEATHER SERVICE SPRINGFIELD MO
200 PM CST FRI JAN 20 2017

NOTE: "FAIR" INDICATES FEW OR NO CLOUDS BELOW 12,000 FEET WITH NO
       SIGNIFICANT WEATHER AND/OR OBSTRUCTIONS TO VISIBILITY.
       CURRENT SKY AND/OR WEATHER CONDITIONS ARE NOT AVAILABLE FOR
       CHILLICOTHE AND FARMINGTON.

MOZ001>031-035>038-043-044-053-054-202100-
...NORTHERN AND WESTERN MISSOURI...

CITY           SKY/WX    TMP DP  RH WIND       PRES   REMARKS
KANSAS CTY INT FOG       48  46  93 E10       29.44F VSB 1/4
KANSAS C DTWN  CLOUDY    51  49  92 E8        29.44F
LEE`S SUMMIT   CLOUDY    53  48  83 SE8       29.45F
ST JOSEPH      CLOUDY    47  47 100 E8        29.45F
CHILLICOTHE      N/A     47  47 100 E8        29.50F
KIRKSVILLE     CLOUDY    47  45  93 E7        29.53F

$$
MOZ066>068-077>081-088>096-101>105-202100-
...SOUTHWEST MISSOURI...

CITY           SKY/WX    TMP DP  RH WIND       PRES   REMARKS
SPRINGFIELD    SUNNY     62  48  60 S17       29.47F
JOPLIN         SUNNY     65  41  41 S24G33    29.44F
BRANSON        MOSUNNY   59  48  67 SW15      29.52F

$$
MOZ032>034-039>042-045>050-055>058-069>072-202100-
...CENTRAL MISSOURI...

CITY           SKY/WX    TMP DP  RH WIND       PRES   REMARKS
COLUMBIA       CLOUDY    50  49  96 SE9       29.52F FOG
JEFFERSON CITY CLOUDY    52  49  89 E9        29.52F
ROLLA          CLOUDY    53  49  86 S14       29.52F
SEDALIA        CLOUDY    57  47  69 SE12      29.49F
WHITEMAN AFB   CLOUDY    55  55 100 S9        29.46F
WARRENSBURG    CLOUDY    54  46  76 SE10      29.46F
OSAGE BEACH    CLOUDY    56  48  74 S14       29.51F

$$
MOZ051-052-059>065-202100-
...EAST CENTRAL MISSOURI...

CITY           SKY/WX    TMP DP  RH WIND       PRES   REMARKS
ST LOUIS INTL  CLOUDY    53  47  79 S10       29.58F
SPIRIT OF STL  CLOUDY    53  48  83 S7        29.57F
ST CHARLES     CLOUDY    52  49  89 S9        29.57F

$$
MOZ072>076-082>087-097>100-106>115-202100-
...SOUTH CENTRAL AND SOUTHEAST MISSOURI...

CITY           SKY/WX    TMP DP  RH WIND       PRES   REMARKS
CAPE GIRARDEAU CLOUDY    59  54  83 S12       29.62F
FARMINGTON     CLOUDY    54  51  90 S12       29.58F
POPLAR BLUFF   CLOUDY    61  56  83 S13       29.61S
WEST PLAINS    PTSUNNY   60  50  69 S16       29.56F

$$



USA.gov is the U.S. government's official web portal to all federal, state and local government web resources and services.